Regional Weather Roundup
Issued by NWS Upton, NY

Current Version | Previous Version | Graphics & Text | Print | Product List | Glossary Off
Versions: 1 2 3 4 5 6 7 8 9 10 11 12 13 14 15 16 17 18 19 20 21 22 23 24 25 26 27 28 29 30 31 32 33 34 35 36 37 38 39 40 41 42 43 44 45 46 47 48 49 50

000
ASUS41 KOKX 122204
RWROKX

REGIONAL WEATHER ROUNDUP
NATIONAL WEATHER SERVICE NEW YORK NY
500 PM EST FRI FEB 12 2016

NOTE: "FAIR" INDICATES FEW OR NO CLOUDS BELOW 12,000 FEET WITH NO
SIGNIFICANT WEATHER AND/OR OBSTRUCTIONS TO VISIBILITY.

NYZ071-072-176-178-NJZ106-104-122300-
NEW YORK CITY METRO AREA


CITY           SKY/WX    TMP DP  RH WIND       PRES   REMARKS
CENTRAL PARK   CLOUDY    25   0  33 SW8       30.04F WCI  16
LAGUARDIA APRT CLOUDY    26   0  32 S14G20    30.03F WCI  14
KENNEDY INTL   CLOUDY    25   2  37 SW13      30.05F WCI  14
NEWARK/LIBERTY CLOUDY    25   1  35 SW12      30.04F WCI  14
BRNX BOT. GARD   N/A     27   3  36 CALM      30.01F
TETERBORO      CLOUDY    29  -1  27 SW9       30.03F WCI  20
$$

NYZ177-179-078>081-122300-
LONG ISLAND NEW YORK

CITY           SKY/WX    TMP DP  RH WIND       PRES   REMARKS
FARMINGDALE    CLOUDY    25   9  50 S9        30.04F WCI  15
ISLIP          CLOUDY    23   8  52 SW6       30.04F WCI  16
SHIRLEY        CLOUDY    23   9  55 VRB5      30.06F WCI  17
RIVERHEAD        N/A     25   7  46 CALM      30.03F
WESTHAMPTON    CLOUDY    22   9  57 W10       30.07F WCI  11
EAST HAMPTON   CLOUDY    22   8  54 SW7       30.06F WCI  14
MONTAUK POINT    N/A     24  10  55 SW6       30.06F WCI  17
$$

NYZ052-065-067-122300-
HUDSON VALLEY

CITY           SKY/WX    TMP DP  RH WIND       PRES   REMARKS
WHITE PLAINS   CLOUDY    24  -2  32 VRB7      29.99F WCI  16
NEWBURGH       PTCLDY    23   5  46 W12G20    29.98F WCI  12
MONTGOMERY     CLOUDY    23   3  42 SW15      29.97F WCI  10
POUGHKEEPSIE   CLOUDY    26   1  34 W5        29.99F WCI  20
ALBANY         CLOUDY    24   2  38 S10       29.94F WCI  14
$$

NJZ001-105-106-008-010-013-015-019>022-104-122300-
NEW JERSEY

CITY           SKY/WX    TMP DP  RH WIND       PRES   REMARKS
NEWARK/LIBERTY CLOUDY    25   1  35 SW12      30.04F WCI  14
TETERBORO      CLOUDY    29  -1  27 SW9       30.03F WCI  20
CALDWELL       CLOUDY    24  -1  33 SW7       30.03F WCI  16
MORRISTOWN     CLOUDY    23   3  42 SW12      30.04F WCI  12
SOMERVILLE     CLOUDY    23   2  40 VRB3      30.02F
SUSSEX         CLOUDY    22   1  40 SW8       29.98F WCI  12
ANDOVER          N/A     20   4  50 SW8       29.99F WCI  10
TRENTON        CLOUDY    24   2  38 W7        30.03F WCI  16
MILLVILLE      CLOUDY    25   7  46 W5        30.05F WCI  19
ATLANTIC CITY  CLOUDY    26   2  35 VRB6      30.05F WCI  19
WRIGHTSTOWN    CLOUDY    24   0  36 W8        30.01F WCI  15
TOMS RIVER     CLOUDY    27   1  33 W9        30.04F WCI  17
BELMAR         CLOUDY    27   0  31 W6        30.03F WCI  20
$$

PAZ047>061-062-071-122300-
EASTERN PENNSYLVANIA

CITY           SKY/WX    TMP DP  RH WIND       PRES   REMARKS
PHILADELPHIA   CLOUDY    25   2  37 SW7       30.06F WCI  17
ALLENTOWN      CLOUDY    21   6  52 SW12      30.01F WCI   9
SCRANTON       CLOUDY    19   5  54 SW12      29.94F WCI   7
$$

CTZ002-004>006-009-010-012-RIZ004-006-007-MAZ004-011-015-122300-
SOUTHERN NEW ENGLAND
 IN CT

CITY           SKY/WX    TMP DP  RH WIND       PRES   REMARKS
BRADLEY INTL   CLOUDY    22   4  46 S9        30.00F WCI  12
HARTFORD       CLOUDY    23   4  44 S10       30.03F WCI  12
DANBURY        CLOUDY    22   1  40 S6        30.00F WCI  14
WTRBRY/OXFORD  CLOUDY    21  -2  35 SW7       29.98F WCI  13
BRIDGEPORT     CLOUDY    24   7  48 S10       30.04F WCI  14
MERIDEN        CLOUDY    23   2  40 S9        30.03F WCI  13
NEW HAVEN      CLOUDY    24   6  46 SW8       30.04F WCI  15
CHESTER        FAIR      23   7  50 S5        30.02F WCI  17
GROTON         CLOUDY    23   8  52 SW13      30.05F WCI  11
WILLIMANTIC    CLOUDY    22   1  40 SW6       30.03F WCI  14

 IN RI

CITY           SKY/WX    TMP DP  RH WIND       PRES   REMARKS
PROVIDENCE     CLOUDY    22   6  50 SW7       30.05F WCI  13
BLOCK ISLAND   CLOUDY    25  12  58 W7        30.03F WCI  17
WESTERLY       CLOUDY    23   7  50 SW8       30.05F WCI  14

 IN MA

CITY           SKY/WX    TMP DP  RH WIND       PRES   REMARKS
BOSTON         CLOUDY    22   4  46 SW10      30.04F WCI  11
WORCESTER      CLOUDY    18  -1  43 SW10      29.95F WCI   6
WESTFIELD      CLOUDY    22   0  38 S8        29.99F WCI  12
PROVINCETOWN   CLOUDY    22   8  55 SW12      30.07F WCI  10
NANTUCKET      CLOUDY    25  13  60 SW8       30.07F WCI  16
$$

ANZ330-335-338-340-345-350-353-355-122300-
COASTAL MARINE OBSERVATIONS


STATION/POSITION TIME  SKY/WX   TEMP    WIND        PRES    VSBY  WAVE
                                AIR SEA DIR/SP/G                  HT/PER
                 (UTC)          (F)     (DEG/KT/KT) (MB)    (MI)  (FT/S)
NY HARB ENTRANCE 2050            26 42  200/ 10/ 14 1018.0          1/ 9
4S FIRE IS       NOT AVBL
20S FIRE ISLAND  2050            24 41  240/ 12/ 14 1018.7          2/11
GREAT SOUTH BAY  NOT AVBL
23SW MTP         2150            26 45  250/ 10/ 16 1017.8          2/ 5
HUDSON CANYON    2050            28 48              1018.7          3/ 9
KINGS POINT      2100            25 36  230/ 10/ 15 1017.0
EXECUTION ROCKS  NOT AVBL
CENTRAL LI SOUND 2100            24     200/ 12/ 16   N/A           1/ 3
EASTERN LI SOUND 2100            25 41  230/ 12/ 16   N/A
ROBBINS REEF     2100            24     230/ 11/ 13 1016.9
$$


>>>>>>>>>>>>>>>>>>>>>>>>>>>> KEY <<<<<<<<<<<<<<<<<<<<<<<<<<<
>                                                          <
>     SKY/WX - SKY CONDITION/PRESENT WEATHER               <
>     TMP    - TEMPERATURE IN FAHRENHEIT                   <
>     DP     - DEWPOINT IN FAHRENHEIT                      <
>     RH     - RELATIVE HUMIDITY IN PERCENT                <
>     WIND   - DIRECTION AND SPEED IN MPH                  <
>     PRES   - MEAN SEA LEVEL PRESSURE IN INCHES OF HG     <
>     WCI    - WIND CHILL INDEX                            <
>     VSB    - VISIBILITY IN MILES                         <
>     HX     - HEAT INDEX                                  <
>     TC     - TEMPERATURE IN CELSIUS                      <
>     VRB    - VARIABLE WIND DIRECTION                     <
>                                                          <
>>>>>>>>>>>>>>>>>>>>>>>>>>>> KEY <<<<<<<<<<<<<<<<<<<<<<<<<<<





USA.gov is the U.S. government's official web portal to all federal, state and local government web resources and services.